Location: Alexandria
(38.8050°N, 77.0470°W)
Time: 02:06:36
(UTC-05:00)

ISS - Pass Details

Date: 16 November 2017
Orbit: 402 x 407 km, 51.6° (Epoch: 23 November)

Event Time Altitude Azimuth Distance (km) Brightness Sun altitude
Exits shadow 04:16:03 11° 64° (ENE) 1,408 -0.4 -30.3°
Drops below altitude 10° 04:16:13 10° 66° (ENE) 1,453 -0.3 -30.3°
Sets 04:18:48 0° 88° (E) 2,309 1.2 -29.8°
